SBS 5

导读 | 豆包AI

SBS 5是由美国于1988年9月8日9时发射的通信卫星,属于SBS(卫星商业系统)系列卫星,该系列由美国邮政、联邦航空局等机构联合推动,服务美国本土商业卫星通信领域。SBS系列卫星填补了80年代美国商业卫星通信资源缺口,为当时的跨区域通信、广播电视传输提供支撑,标志着美国商用通信卫星网络布局进一步完善。

Basic Information
目录编号:
19484
目录名称:
SBS 5
国际标识:
1988-081B
轨道中心:
EARTH
卫星名称:
SBS 5
卫星全名:
--
卫星状态:
在轨 (已飞行13748 天)
发射日期:
1988-09-08 UTC
国别 :
美国 (US)
星等 :
--
Orbit Information
数据来源 国际轨道数据 AOE轨道数据
星历时间 2026-04-30T11:16:39+0800
19小时前
查看轨道信息
2026-04-30T11:00:00+0800
20小时前
查看轨道信息
半长轴 42301.072km 42301.072km
偏心率 0.0007481 0.0007386
轨道倾角 14.595° 14.595°
近地点辐角 326.694° 327.290°
升交点赤经 1.296° 1.295°
平近点角 221.627° 216.879°
近地点 35891.289km 35891.691km
远地点 35954.581km 35954.179km
周期 1443.068分钟 1443.068分钟
每日圈数 0.997874 0.997874
Detailed Information
使用方式:
暂无
2D Orbit Map
3D Orbit Map
Orbit Altitude Analysis Chart
Orbit Inclination Analysis Chart
Orbit Comprehensive Analysis Chart
View Comprehensive Chart